Tracking 31027 objects as of 19-Jul-2025
HD Live streaming from Space Station
objects crossing your sky now

DELTA 1 DEB

Track DELTA 1 DEB now!
10-day predictions


NORAD ID: 2976
Int'l Code: 1967-036C
Perigee: 1,264.1 km
Apogee: 1,416.3 km
Inclination: 102.1 °
Period: 112.3 minutes
Semi major axis: 7711 km
RCS: 0.0638 m2 (small)
Launch date: April 20, 1967
Source: United States (US)
Launch site: AIR FORCE WESTERN TEST RANGE (AFWTR)

Note: This is SATELLITE DEBRIS
Your satellite tracking list
COSMOS 1408 DEB
Track 1 satellite(s)




NASA's NSSDC Master Catalog

Two Line Element Set (TLE):
1 02976U 67036C   25199.31945550 -.00000017  00000-0  13999-3 0  9997
2 02976 102.1275 325.0467 0098706  65.7482 320.9974 12.82089674724928
Source of the keplerian elements: AFSPC